[[{"header":{"parameterUnit":"m.s-1","parameterCategory":1,"la1":30.2991,"la2":30.254,"lo1":-89.0895,"lo2":-89.0444,"dy":0.0017,"dx":0.0017,"nx":28,"ny":28,"refTime":"2024-04-24T09:00:00:Z","depth":0,"parameterNumber":2,"parameterNumberName":"U-component_of_WINDS"},"data":[0,0,0,0,0,0,0,0,0,0,0,0,0,0,0,0,0,0,0,0,0,0,0,0,0,0,0,0,0,0,0,0,0,0,0,0,0,0,0,0,0,0,0,0,0,0,0,0,0,0,0,0,0,0,0,0,0,0,-1.9159,-1.916,0,-1.9262,-1.9263,-1.9264,-1.9272,-1.9271,-1.927,-1.9269,-1.9375,-1.9379,-1.9383,0,0,0,0,0,0,0,0,0,0,0,0,0,-1.8973,-1.8977,-1.9159,-1.9161,-1.9162,-1.9261,-1.9263,-1.9264,-1.9272,-1.9271,-1.927,-1.9268,-1.9374,-1.9379,-1.9383,0,0,0,0,0,0,0,0,0,0,0,0,0,-1.9063,-1.8978,-1.9159,-1.9178,-1.9181,-1.9261,-1.9263,-1.9265,-1.9273,-1.9271,-1.9269,-1.9268,-1.9373,-1.9378,-1.9384,-1.9453,0,0,-1.9402,-1.9404,0,0,0,0,0,0,0,0,-1.9058,-1.9069,-1.9174,-1.9177,-1.918,-1.9252,-1.9236,-1.9328,-1.9273,-1.9238,-1.9269,-1.9267,-1.9336,-1.9345,-1.9367,-1.9458,-1.9463,-1.9402,-1.9406,-1.9408,-1.941,0,0,0,0,0,0,0,-1.9051,-1.9065,-1.92,-1.9175,-1.9179,-1.9182,-1.9193,-1.9254,-1.9295,-1.9241,-1.9242,-1.9253,-1.9337,-1.9362,-1.937,-1.9464,-1.9402,-1.9407,-1.9411,-1.9413,-1.9617,-1.9619,0,0,0,0,0,0,-1.9041,-1.906,-1.9197,-1.9203,-1.9113,-1.9187,-1.9199,-1.9231,-1.9294,-1.9302,-1.9255,-1.9253,-1.9353,-1.9363,-1.9374,-1.9459,-1.9408,-1.9414,-1.9417,-1.9615,-1.9618,-1.962,0,0,0,0,0,0,-1.9037,-1.9053,-1.9192,-1.9132,-1.915,-1.9192,-1.9228,-1.9234,-1.9258,-1.9305,-1.9313,-1.9272,-1.9352,-1.9366,-1.9433,-1.9463,-1.9416,-1.9421,-1.9613,-1.9616,-1.9619,-1.9631,0,0,0,0,0,0,-1.9032,-1.9052,-1.9078,-1.9132,-1.9153,-1.925,-1.9229,-1.9237,-1.9268,-1.9267,-1.9323,-1.9331,-1.9352,-1.9425,-1.9439,-1.947,-1.9426,-1.9611,-1.9614,-1.9618,-1.9628,-1.9634,-1.9639,0,0,0,0,0,-1.9025,-1.9078,-1.9079,-1.9096,-1.9186,-1.9251,-1.9263,-1.9285,-1.927,-1.9298,-1.9328,-1.9329,-1.9457,-1.9431,-1.9448,-1.9481,-1.9609,-1.9613,-1.9618,-1.9626,-1.9633,-1.9639,0,0,0,0,0,0,-1.9027,-1.9085,-1.9088,-1.9159,-1.92,-1.9253,-1.9287,-1.9292,-1.9339,-1.9336,-1.9362,-1.9375,-1.9442,-1.9468,-1.9438,-1.9552,-1.9532,-1.954,-1.9532,-1.9539,-1.9545,-1.9537,-1.9431,0,0,0,0,0,-1.9035,-1.9083,-1.9131,-1.919,-1.921,-1.9245,-1.9274,-1.9288,-1.9332,-1.9349,-1.9384,-1.9427,-1.9477,-1.951,-1.9558,-1.9632,-1.9644,-1.9663,-1.9668,-1.9672,-1.9679,-1.972,-1.9729,-1.9634,-1.9634,-1.9634,0,0,-1.9054,-1.9091,-1.912,-1.9191,-1.9224,-1.9273,-1.926,-1.9312,-1.9349,-1.9357,-1.9423,-1.9451,-1.95,-1.9571,-1.9604,-1.9596,-1.9708,-1.9678,-1.9681,-1.9686,-1.9726,-1.9735,-1.9743,-1.9637,-1.9637,-1.9636,0,0,-1.9112,-1.9145,-1.9198,-1.9231,-1.9282,-1.9305,-1.9317,-1.937,-1.9388,-1.9454,-1.9462,-1.9506,-1.9592,-1.9627,-1.9656,-1.9728,-1.9731,-1.9743,-1.9772,-1.9812,-1.9819,-1.9826,-1.9852,-1.9861,-1.975,-1.975,-1.975,0,-1.9129,-1.9203,-1.9224,-1.9277,-1.9308,-1.9317,-1.9371,-1.9403,-1.9467,-1.9489,-1.9478,-1.9585,-1.9619,-1.9699,-1.9716,-1.974,-1.9755,-1.9737,-1.9816,-1.9823,-1.983,-1.9855,-1.9865,-1.9751,-1.9751,-1.975,-1.975,0,-1.9221,-1.9272,-1.9308,-1.9369,-1.9405,-1.9457,-1.9488,-1.9521,-1.9532,-1.9556,-1.9624,-1.9665,-1.9722,-1.9742,-1.9753,-1.9824,-1.9817,-1.9811,-1.9791,-1.984,-1.9864,-1.9874,-1.9752,-1.9752,-1.9752,-1.9751,0,0,-1.9284,-1.9356,-1.9369,-1.9397,-1.9453,-1.9493,-1.9547,-1.9602,-1.9631,-1.9674,-1.972,-1.9792,-1.9787,-1.982,-1.9835,-1.987,-1.9925,-1.986,-1.9862,-1.9871,-2.0006,-2.0011,-2.0021,-1.9928,-1.993,-1.9931,-2.0002,0,-1.9349,-1.9444,-1.9465,-1.9546,-1.9594,-1.9603,-1.965,-1.969,-1.9714,-1.9759,-1.9786,-1.9837,-1.9826,-1.9846,-1.9881,-1.9911,-1.9953,-1.9906,-1.9971,-1.9973,-1.9959,-2.0034,-2.0039,-2.0104,-2.0012,-2.0013,-2.0014,0,-1.9438,-1.9483,-1.9569,-1.962,-1.9641,-1.9682,-1.9735,-1.9777,-1.9823,-1.9838,-1.9875,-1.9886,-1.9943,-1.992,-1.9998,-1.9966,-1.9994,-2.0013,-2.0016,-2.0023,-1.9997,-2.0044,-2.0125,-2.0135,-2.0029,-2.0028,-2.0027,0,-1.9476,-1.9558,-1.9621,-1.9644,-1.9704,-1.9733,-1.976,-1.9804,-1.9836,-1.9882,-1.9903,-1.9955,-1.9984,-2.0025,-2.005,-2.0031,-2.0127,-2.0106,-2.0142,-2.0142,-2.0162,-2.0161,-2.0249,-2.0179,-2.0179,-2.0179,-2.0179,0,-1.9547,-1.9599,-1.9638,-1.9677,-1.9736,-1.976,-1.9818,-1.9845,-1.9884,-1.9928,-1.994,-1.9981,-2.0012,-2.0058,-2.0078,-2.0141,-2.0154,-2.0168,-2.0173,-2.0167,-2.0165,-2.0186,-2.0183,-2.0182,-2.0181,-2.0181,-2.018,0,-1.9599,-1.9627,-1.9696,-1.9747,-1.9761,-1.9803,-1.9847,-1.9885,-1.9909,-1.9965,-1.9979,-2.0018,-2.0072,-2.0102,-2.017,-2.0184,-2.0254,-2.0256,-2.0238,-2.024,-2.0275,-2.0271,-2.038,-2.0396,-2.0315,-2.0316,-2.0316,0,-1.9643,-1.9684,-1.9739,-1.9769,-1.9796,-1.9844,-1.9877,-1.9902,-1.9935,-1.9991,-2.0022,-2.0077,-2.0123,-2.021,-2.0244,-2.0297,-2.0301,-2.0335,-2.0309,-2.0302,-2.0302,-2.0299,-2.0304,-2.034,-2.0341,-2.0341,-2.0342,0,-1.9718,-1.973,-1.9776,-1.9827,-1.9865,-1.9907,-1.9948,-1.9973,-2.0005,-2.0042,-2.0098,-2.0133,-2.0202,-2.0257,-2.0313,-2.0341,-2.0347,-2.035,-2.0361,-2.0356,-2.0344,-2.0351,-2.0251,-2.0347,-2.0347,-2.0346,-2.0346,-2.0346,-1.9768,-1.9805,-1.9849,-1.99,-1.9934,-1.9972,-2.001,-2.0039,-2.0085,-2.0144,-2.0156,-2.0215,-2.026,-2.0334,-2.0364,-2.0411,-2.0404,-2.042,-2.0424,-2.0428,-2.043,-2.0336,-2.0421,-2.0421,-2.0421,-2.0421,-2.0421,0,-1.9844,-1.9873,-1.992,-1.9977,-2.0017,-2.0018,-2.0064,-2.0098,-2.0149,-2.019,-2.0235,-2.0299,-2.0352,-2.039,-2.0445,-2.0475,-2.0479,-2.0489,-2.0487,-2.0493,-2.0432,-2.0418,-2.0484,-2.0484,-2.0484,-2.0484,-2.0484,-2.0484,-1.9889,-1.9951,-1.9968,-2.0046,-2.0075,-2.0132,-2.0158,-2.0194,-2.0227,-2.0298,-2.0342,-2.0366,-2.0406,-2.0464,-2.0513,-2.0523,-2.0543,-2.0552,-2.0562,-2.0504,-2.0498,-2.0491,-2.0477,-2.0555,-2.0556,-2.0619,-2.062,-2.062]},{"header":{"parameterUnit":"m.s-1","parameterCategory":1,"la1":30.2991,"la2":30.254,"lo1":-89.0895,"lo2":-89.0444,"dy":0.0017,"dx":0.0017,"nx":28,"ny":28,"refTime":"2024-04-24T09:00:00:Z","depth":0,"parameterNumber":3,"parameterNumberName":"V-component_of_WINDS"},"data":[0,0,0,0,0,0,0,0,0,0,0,0,0,0,0,0,0,0,0,0,0,0,0,0,0,0,0,0,0,0,0,0,0,0,0,0,0,0,0,0,0,0,0,0,0,0,0,0,0,0,0,0,0,0,0,0,0,0,4.9675,4.9676,0,4.9712,4.9712,4.9713,4.9635,4.9633,4.963,4.9628,4.9664,4.9667,4.967,0,0,0,0,0,0,0,0,0,0,0,0,0,4.9535,4.9538,4.9675,4.9676,4.9676,4.9712,4.9712,4.9713,4.9636,4.9633,4.963,4.9627,4.9663,4.9666,4.967,0,0,0,0,0,0,0,0,0,0,0,0,0,4.9586,4.9539,4.9675,4.9642,4.9639,4.9712,4.9712,4.9713,4.9637,4.9633,4.9629,4.9626,4.9661,4.9666,4.9671,4.9776,0,0,4.9686,4.9688,0,0,0,0,0,0,0,0,4.9583,4.9591,4.9646,4.9644,4.9642,4.9665,4.9676,4.9734,4.9637,4.9638,4.9628,4.9624,4.9667,4.9671,4.9686,4.9778,4.9779,4.9686,4.9689,4.9691,4.9693,0,0,0,0,0,0,0,4.958,4.9589,4.9689,4.9647,4.9644,4.9624,4.9627,4.9686,4.9673,4.9637,4.9632,4.9637,4.9665,4.9682,4.9687,4.978,4.9686,4.969,4.9694,4.9695,4.9957,4.996,0,0,0,0,0,0,4.9581,4.9587,4.9688,4.9691,4.9603,4.963,4.9633,4.9661,4.9672,4.967,4.964,4.9634,4.9675,4.9681,4.9687,4.981,4.9691,4.9696,4.9699,4.9953,4.9958,4.9962,0,0,0,0,0,0,4.9578,4.9591,4.9687,4.9637,4.9648,4.9636,4.9668,4.9664,4.9681,4.9674,4.9671,4.966,4.9672,4.9681,4.9754,4.981,4.9698,4.9703,4.9948,4.9954,4.996,5.0056,0,0,0,0,0,0,4.9574,4.959,4.9631,4.9639,4.9651,4.9754,4.9672,4.9668,4.969,4.9681,4.9692,4.969,4.967,4.9747,4.9759,4.9815,4.9706,4.9943,4.9951,4.9958,5.0048,5.0065,5.0079,0,0,0,0,0,4.957,4.9657,4.9634,4.9646,4.9702,4.9758,4.9765,4.974,4.9695,4.9735,4.973,4.969,4.9802,4.9755,4.9768,4.9826,4.9939,4.9949,4.9957,5.0041,5.0061,5.0079,0,0,0,0,0,0,4.9656,4.9657,4.9632,4.9724,4.9741,4.9745,4.9795,4.9763,4.9793,4.9784,4.9751,4.9754,4.9834,4.9837,4.9785,4.9927,4.9863,4.9875,4.9922,4.9941,4.9957,4.9954,4.9711,0,0,0,0,0,4.9686,4.9732,4.973,4.9812,4.9822,4.9807,4.9831,4.981,4.9826,4.9833,4.9834,4.9851,4.9889,4.9916,4.9951,5.0048,5.0048,5.0094,5.0109,5.0122,5.0133,5.0182,5.0201,4.9991,4.9991,4.9991,0,0,4.9748,4.9754,4.9785,4.9829,4.984,4.9887,4.9814,4.9867,4.9901,4.9841,4.991,4.9912,4.9928,5.0013,5.0051,5.0018,5.0191,5.0134,5.0144,5.0147,5.0193,5.0213,5.0231,4.9997,4.9996,4.9995,0,0,4.9885,4.9895,4.9963,4.9975,4.9993,4.9982,4.9999,5.0006,5.0005,5.0074,5.0029,5.0069,5.0137,5.0149,5.0165,5.0304,5.0268,5.0317,5.0398,5.0446,5.0463,5.0477,5.0525,5.0543,5.0327,5.0327,5.0328,0,4.9959,5.0029,5.0002,5.0058,5.0078,5.0025,5.0093,5.0106,5.0134,5.0148,5.0112,5.0194,5.0202,5.0288,5.0322,5.0337,5.0353,5.0315,5.0463,5.0477,5.049,5.0535,5.0554,5.0333,5.0333,5.0332,5.0331,0,5.0119,5.0168,5.0221,5.0249,5.0275,5.0337,5.0317,5.0346,5.0323,5.0316,5.0385,5.0392,5.0427,5.0446,5.0425,5.0529,5.0508,5.0468,5.0403,5.0516,5.0558,5.0575,5.0341,5.0339,5.0338,5.0336,0,0,5.0312,5.0323,5.0343,5.0354,5.0369,5.0406,5.0464,5.0498,5.0523,5.0544,5.059,5.0648,5.061,5.0628,5.0607,5.0649,5.0757,5.0603,5.0603,5.063,5.0871,5.09,5.0921,5.0733,5.0736,5.0739,5.0869,0,5.0446,5.0547,5.0523,5.0623,5.0666,5.0616,5.0666,5.068,5.0674,5.071,5.0703,5.0744,5.0691,5.0701,5.0741,5.0736,5.0805,5.0726,5.0775,5.0777,5.0771,5.0943,5.0975,5.1097,5.0885,5.0888,5.089,0,5.0617,5.0644,5.0747,5.0752,5.077,5.0816,5.0844,5.0879,5.0892,5.0885,5.0904,5.0874,5.093,5.0865,5.094,5.0887,5.0905,5.0906,5.091,5.0912,5.084,5.0949,5.1136,5.1154,5.0916,5.0914,5.0912,0,5.0745,5.0807,5.0876,5.0888,5.0896,5.0929,5.0934,5.0944,5.0965,5.099,5.1003,5.1034,5.105,5.1074,5.1053,5.1007,5.1131,5.1064,5.1125,5.1126,5.1153,5.1151,5.1344,5.1167,5.1167,5.1166,5.1166,0,5.0897,5.0962,5.0934,5.0977,5.1047,5.1018,5.1088,5.1087,5.1096,5.1136,5.1095,5.1133,5.1103,5.1139,5.1122,5.1186,5.1194,5.1189,5.1183,5.1192,5.1192,5.1203,5.1193,5.1171,5.117,5.1169,5.1168,0,5.1052,5.1036,5.1108,5.111,5.1111,5.1163,5.1164,5.1202,5.1193,5.1245,5.1255,5.124,5.128,5.126,5.1302,5.129,5.1373,5.1357,5.1368,5.1363,5.1425,5.1419,5.163,5.1655,5.1464,5.1465,5.1467,0,5.115,5.1198,5.1205,5.1229,5.1236,5.1276,5.1297,5.127,5.1293,5.1311,5.1347,5.1383,5.141,5.1476,5.1468,5.1499,5.1482,5.1554,5.1487,5.1493,5.1482,5.1478,5.1482,5.1567,5.157,5.1571,5.1573,0,5.1324,5.1313,5.1345,5.1375,5.1401,5.1423,5.1441,5.1463,5.1436,5.1465,5.1504,5.1525,5.1567,5.1602,5.1629,5.1632,5.1598,5.1594,5.161,5.1618,5.1622,5.1619,5.1404,5.1589,5.1588,5.1587,5.1586,5.1585,5.1452,5.1492,5.1502,5.1539,5.1549,5.1567,5.1603,5.1597,5.163,5.1662,5.1643,5.169,5.17,5.1731,5.174,5.1774,5.1746,5.1769,5.1774,5.178,5.1787,5.1618,5.1779,5.1779,5.1778,5.1778,5.1778,0,5.1622,5.1626,5.166,5.1687,5.1715,5.168,5.1698,5.1724,5.1765,5.1777,5.1805,5.1849,5.1883,5.1878,5.1908,5.1937,5.1922,5.1946,5.1943,5.1944,5.1812,5.1795,5.1957,5.1957,5.1957,5.1957,5.1957,5.1957,5.1715,5.178,5.177,5.1839,5.1841,5.1886,5.1899,5.1914,5.1924,5.1975,5.2003,5.1999,5.2004,5.2034,5.2063,5.206,5.2073,5.2103,5.2094,5.1971,5.1953,5.1936,5.192,5.2106,5.2106,5.2223,5.2224,5.2225]}]]